Time,TemperatureF,DewpointF,PressureIn,WindDirection,WindDirectionDegrees,WindSpeedMPH,WindSpeedGustMPH,Humidity,HourlyPrecipIn,Conditions,Clouds,dailyrainin,SoftwareType,DateUTC
2013-04-04 00:00:00,45.9,28.8,25.99,NE,45,2.2,2.7,51,0.00,,---,0.00,VWS V14.01,2013-04-04 07:00:00,
2013-04-04 00:05:00,45.5,28.9,25.99,North,0,3.1,3.6,52,0.00,,---,0.00,VWS V14.01,2013-04-04 07:05:00,
2013-04-04 00:10:00,45.3,28.3,25.99,NE,45,3.1,3.1,51,0.00,,---,0.00,VWS V14.01,2013-04-04 07:10:00,
2013-04-04 00:15:00,45.5,28.4,25.99,ENE,68,3.1,3.1,51,0.00,,---,0.00,VWS V14.01,2013-04-04 07:15:00,
2013-04-04 00:20:00,45.5,29.8,25.99,ENE,68,2.2,2.7,54,0.00,,---,0.00,VWS V14.01,2013-04-04 07:20:00,
2013-04-04 00:25:00,45.3,28.3,25.99,ENE,68,3.6,3.6,51,0.00,,---,0.00,VWS V14.01,2013-04-04 07:25:00,
2013-04-04 00:30:00,45.3,28.3,25.96,ENE,68,3.6,3.6,51,0.00,,---,0.00,VWS V14.01,2013-04-04 07:30:00,
2013-04-04 00:35:00,45.1,28.6,25.96,ENE,68,2.7,3.1,52,0.00,,---,0.00,VWS V14.01,2013-04-04 07:35:00,
2013-04-04 00:40:00,44.8,28.7,25.96,ENE,68,2.7,2.7,53,0.00,,---,0.00,VWS V14.01,2013-04-04 07:40:00,
2013-04-04 00:45:00,44.6,28.5,25.99,ENE,68,2.7,2.7,53,0.00,,---,0.00,VWS V14.01,2013-04-04 07:45:00,
2013-04-04 00:50:00,44.6,28.5,25.99,ENE,68,3.6,3.6,53,0.00,,---,0.00,VWS V14.01,2013-04-04 07:50:00,
2013-04-04 00:55:00,44.4,28.8,25.99,ENE,68,3.1,3.1,54,0.00,,---,0.00,VWS V14.01,2013-04-04 07:55:00,
2013-04-04 01:00:00,44.4,30.2,25.99,ENE,68,3.6,3.6,57,0.00,,---,0.00,VWS V14.01,2013-04-04 08:00:00,
2013-04-04 01:05:00,44.2,29.1,25.99,ENE,68,2.7,3.1,55,0.00,,---,0.00,VWS V14.01,2013-04-04 08:05:00,
2013-04-04 01:10:00,44.2,29.1,25.99,ENE,68,2.7,3.1,55,0.00,,---,0.00,VWS V14.01,2013-04-04 08:10:00,
2013-04-04 01:15:00,44.2,29.1,25.96,NE,45,3.1,3.6,55,0.00,,---,0.00,VWS V14.01,2013-04-04 08:15:00,
2013-04-04 01:20:00,44.2,29.1,25.96,NE,45,2.2,2.7,55,0.00,,---,0.00,VWS V14.01,2013-04-04 08:20:00,
2013-04-04 01:25:00,44.2,29.1,25.96,NE,45,2.7,2.7,55,0.00,,---,0.00,VWS V14.01,2013-04-04 08:25:00,
2013-04-04 01:30:00,44.2,29.5,25.96,NE,45,2.2,2.7,56,0.00,,---,0.00,VWS V14.01,2013-04-04 08:30:00,
2013-04-04 01:35:00,44.2,29.1,25.96,NE,45,2.7,3.1,55,0.00,,---,0.00,VWS V14.01,2013-04-04 08:35:00,
2013-04-04 01:40:00,44.2,29.5,25.96,NE,45,2.2,2.7,56,0.00,,---,0.00,VWS V14.01,2013-04-04 08:40:00,
2013-04-04 01:45:00,44.2,29.5,25.96,NE,45,2.2,2.2,56,0.00,,---,0.00,VWS V14.01,2013-04-04 08:45:00,
2013-04-04 01:50:00,44.2,29.5,25.96,NE,45,2.2,2.7,56,0.00,,---,0.00,VWS V14.01,2013-04-04 08:50:00,
2013-04-04 01:55:00,44.2,29.5,25.96,NE,45,2.2,2.7,56,0.00,,---,0.00,VWS V14.01,2013-04-04 08:55:00,
2013-04-04 02:00:00,44.1,29.4,25.96,NE,45,0.0,2.2,56,0.00,,---,0.00,VWS V14.01,2013-04-04 09:00:00,
2013-04-04 02:05:00,44.1,29.4,25.96,NE,45,2.2,2.7,56,0.00,,---,0.00,VWS V14.01,2013-04-04 09:05:00,
2013-04-04 02:10:00,43.9,29.2,25.96,NE,45,3.1,3.1,56,0.00,,---,0.00,VWS V14.01,2013-04-04 09:10:00,
2013-04-04 02:15:00,43.7,29.5,25.96,NE,45,3.6,3.6,57,0.00,,---,0.00,VWS V14.01,2013-04-04 09:15:00,
2013-04-04 02:20:00,43.5,29.3,25.96,NE,45,2.7,2.7,57,0.00,,---,0.00,VWS V14.01,2013-04-04 09:20:00,
2013-04-04 02:25:00,43.5,29.3,25.96,NE,45,2.7,2.7,57,0.00,,---,0.00,VWS V14.01,2013-04-04 09:25:00,
2013-04-04 02:30:00,43.5,29.3,25.96,NE,45,2.7,2.7,57,0.00,,---,0.00,VWS V14.01,2013-04-04 09:30:00,
2013-04-04 02:35:00,43.5,29.7,25.96,NE,45,2.7,3.1,58,0.00,,---,0.00,VWS V14.01,2013-04-04 09:35:00,
2013-04-04 02:40:00,43.5,30.2,25.96,NE,45,3.6,3.6,59,0.00,,---,0.00,VWS V14.01,2013-04-04 09:40:00,
2013-04-04 02:45:00,43.7,29.5,25.93,NE,45,2.7,2.7,57,0.00,,---,0.00,VWS V14.01,2013-04-04 09:45:00,
2013-04-04 02:50:00,43.7,29.9,25.93,NE,45,2.7,2.7,58,0.00,,---,0.00,VWS V14.01,2013-04-04 09:50:00,
2013-04-04 02:55:00,43.5,30.2,25.93,NE,45,3.1,3.6,59,0.00,,---,0.00,VWS V14.01,2013-04-04 09:55:00,
2013-04-04 03:00:00,43.7,30.3,25.93,NE,45,2.7,2.7,59,0.00,,---,0.00,VWS V14.01,2013-04-04 10:00:00,
2013-04-04 03:05:00,43.5,29.7,25.93,NE,45,3.1,3.1,58,0.00,,---,0.00,VWS V14.01,2013-04-04 10:05:00,
2013-04-04 03:10:00,43.3,29.6,25.93,NE,45,2.7,2.7,58,0.00,,---,0.00,VWS V14.01,2013-04-04 10:10:00,
2013-04-04 03:15:00,43.2,29.4,25.93,NE,45,2.7,2.7,58,0.00,,---,0.00,VWS V14.01,2013-04-04 10:15:00,
2013-04-04 03:20:00,43.2,29.4,25.93,NE,45,2.7,2.7,58,0.00,,---,0.00,VWS V14.01,2013-04-04 10:20:00,
2013-04-04 03:25:00,43.0,28.8,25.93,NE,45,2.7,2.7,57,0.00,,---,0.00,VWS V14.01,2013-04-04 10:25:00,
2013-04-04 03:30:00,43.0,29.2,25.93,NE,45,3.1,3.1,58,0.00,,---,0.00,VWS V14.01,2013-04-04 10:30:00,
2013-04-04 03:35:00,43.0,29.2,25.93,NE,45,3.1,3.1,58,0.00,,---,0.00,VWS V14.01,2013-04-04 10:35:00,
2013-04-04 03:40:00,43.2,29.4,25.93,NE,45,0.0,2.2,58,0.00,,---,0.00,VWS V14.01,2013-04-04 10:40:00,
2013-04-04 03:45:00,43.3,30.0,25.93,NE,45,2.2,2.7,59,0.00,,---,0.00,VWS V14.01,2013-04-04 10:45:00,
2013-04-04 03:50:00,43.7,29.9,25.93,NE,45,3.6,4.0,58,0.00,,---,0.00,VWS V14.01,2013-04-04 10:50:00,
2013-04-04 03:55:00,43.9,30.5,25.93,NE,45,0.0,2.7,59,0.00,,---,0.00,VWS V14.01,2013-04-04 10:55:00,
2013-04-04 04:00:00,43.9,30.1,25.90,NE,45,2.7,3.6,58,0.00,,---,0.00,VWS V14.01,2013-04-04 11:00:00,
2013-04-04 04:05:00,44.1,29.8,25.90,NE,45,2.7,2.7,57,0.00,,---,0.00,VWS V14.01,2013-04-04 11:05:00,
2013-04-04 04:10:00,44.1,29.8,25.90,NE,45,0.0,0.0,57,0.00,,---,0.00,VWS V14.01,2013-04-04 11:10:00,
2013-04-04 04:15:00,44.6,29.0,25.93,NE,45,0.0,0.0,54,0.00,,---,0.00,VWS V14.01,2013-04-04 11:15:00,
2013-04-04 04:20:00,44.8,29.2,25.93,NE,45,0.0,0.0,54,0.00,,---,0.00,VWS V14.01,2013-04-04 11:20:00,
2013-04-04 04:25:00,44.8,28.7,25.93,NE,45,0.0,0.0,53,0.00,,---,0.00,VWS V14.01,2013-04-04 11:25:00,
2013-04-04 04:30:00,45.3,29.2,25.90,NE,45,0.0,0.0,53,0.00,,---,0.00,VWS V14.01,2013-04-04 11:30:00,
2013-04-04 04:35:00,45.1,29.0,25.90,NE,45,0.0,0.0,53,0.00,,---,0.00,VWS V14.01,2013-04-04 11:35:00,
2013-04-04 04:40:00,45.0,28.9,25.90,NE,45,0.0,0.0,53,0.00,,---,0.00,VWS V14.01,2013-04-04 11:40:00,
2013-04-04 04:45:00,44.8,28.7,25.90,NE,45,0.0,0.0,53,0.00,,---,0.00,VWS V14.01,2013-04-04 11:45:00,
2013-04-04 04:50:00,44.4,28.4,25.90,NE,45,0.0,0.0,53,0.00,,---,0.00,VWS V14.01,2013-04-04 11:50:00,
2013-04-04 04:55:00,44.2,28.2,25.90,NE,45,0.0,0.0,53,0.00,,---,0.00,VWS V14.01,2013-04-04 11:55:00,
2013-04-04 05:00:00,43.7,27.7,25.90,NE,45,0.0,0.0,53,0.00,,---,0.00,VWS V14.01,2013-04-04 12:00:00,
2013-04-04 05:05:00,43.5,28.4,25.90,NE,45,2.7,3.1,55,0.00,,---,0.00,VWS V14.01,2013-04-04 12:05:00,
2013-04-04 05:10:00,43.3,28.3,25.90,NE,45,3.1,3.1,55,0.00,,---,0.00,VWS V14.01,2013-04-04 12:10:00,
2013-04-04 05:15:00,43.3,28.3,25.90,NE,45,3.1,3.6,55,0.00,,---,0.00,VWS V14.01,2013-04-04 12:15:00,
2013-04-04 05:20:00,43.3,28.7,25.90,NE,45,2.2,2.7,56,0.00,,---,0.00,VWS V14.01,2013-04-04 12:20:00,
2013-04-04 05:25:00,43.3,28.7,25.90,NE,45,3.1,3.6,56,0.00,,---,0.00,VWS V14.01,2013-04-04 12:25:00,
2013-04-04 05:30:00,43.3,29.1,25.90,NE,45,3.6,3.6,57,0.00,,---,0.00,VWS V14.01,2013-04-04 12:30:00,
2013-04-04 05:35:00,43.3,29.6,25.90,NE,45,3.1,3.1,58,0.00,,---,0.00,VWS V14.01,2013-04-04 12:35:00,
2013-04-04 05:40:00,43.2,29.0,25.90,NE,45,3.1,3.1,57,0.00,,---,0.00,VWS V14.01,2013-04-04 12:40:00,
2013-04-04 05:45:00,43.0,28.8,25.90,NE,45,3.1,3.1,57,0.00,,---,0.00,VWS V14.01,2013-04-04 12:45:00,
2013-04-04 05:50:00,43.0,28.8,25.90,NE,45,4.0,4.0,57,0.00,,---,0.00,VWS V14.01,2013-04-04 12:50:00,
2013-04-04 05:55:00,43.2,29.4,25.90,NE,45,3.6,3.6,58,0.00,,---,0.00,VWS V14.01,2013-04-04 12:55:00,
2013-04-04 06:00:00,43.2,28.5,25.90,NE,45,3.1,3.6,56,0.00,,---,0.00,VWS V14.01,2013-04-04 13:00:00,
2013-04-04 06:05:00,43.2,29.0,25.90,NE,45,2.7,2.7,57,0.00,,---,0.00,VWS V14.01,2013-04-04 13:05:00,
2013-04-04 06:10:00,43.2,29.0,25.90,NE,45,0.0,0.0,57,0.00,,---,0.00,VWS V14.01,2013-04-04 13:10:00,
2013-04-04 06:15:00,43.0,28.4,25.90,NE,45,0.0,0.0,56,0.00,,---,0.00,VWS V14.01,2013-04-04 13:15:00,
2013-04-04 06:20:00,43.5,28.4,25.90,NE,45,0.0,0.0,55,0.00,,---,0.00,VWS V14.01,2013-04-04 13:20:00,
2013-04-04 06:25:00,43.5,28.4,25.90,NE,45,0.0,0.0,55,0.00,,---,0.00,VWS V14.01,2013-04-04 13:25:00,
2013-04-04 06:30:00,43.5,28.4,25.90,NE,45,2.2,2.2,55,0.00,,---,0.00,VWS V14.01,2013-04-04 13:30:00,
2013-04-04 06:35:00,43.9,28.8,25.90,NE,45,2.7,2.7,55,0.00,,---,0.00,VWS V14.01,2013-04-04 13:35:00,
2013-04-04 06:40:00,44.1,28.5,25.90,NE,45,2.7,2.7,54,0.00,,---,0.00,VWS V14.01,2013-04-04 13:40:00,
2013-04-04 06:45:00,44.1,28.5,25.90,SE,135,3.6,3.6,54,0.00,,---,0.00,VWS V14.01,2013-04-04 13:45:00,
2013-04-04 06:50:00,44.1,28.5,25.90,SE,135,2.2,2.2,54,0.00,,---,0.00,VWS V14.01,2013-04-04 13:50:00,
2013-04-04 06:55:00,44.1,28.5,25.90,ESE,112,0.0,2.2,54,0.00,,---,0.00,VWS V14.01,2013-04-04 13:55:00,
2013-04-04 07:00:00,44.1,28.9,25.90,ESE,112,0.0,0.0,55,0.00,,---,0.00,VWS V14.01,2013-04-04 14:00:00,
2013-04-04 07:05:00,44.1,28.9,25.90,ESE,112,0.0,0.0,55,0.00,,---,0.00,VWS V14.01,2013-04-04 14:05:00,
2013-04-04 07:10:00,44.1,28.9,25.90,ESE,112,0.0,0.0,55,0.00,,---,0.00,VWS V14.01,2013-04-04 14:10:00,
2013-04-04 07:15:00,44.1,29.4,25.90,ESE,112,0.0,0.0,56,0.00,,---,0.00,VWS V14.01,2013-04-04 14:15:00,
2013-04-04 07:20:00,44.1,29.4,25.90,ESE,112,0.0,0.0,56,0.00,,---,0.00,VWS V14.01,2013-04-04 14:20:00,
2013-04-04 07:25:00,44.2,29.5,25.90,ESE,112,0.0,0.0,56,0.00,,---,0.00,VWS V14.01,2013-04-04 14:25:00,
2013-04-04 07:30:00,44.2,30.0,25.90,ESE,112,0.0,0.0,57,0.00,,---,0.00,VWS V14.01,2013-04-04 14:30:00,
2013-04-04 07:35:00,44.6,29.5,25.90,ESE,112,0.0,0.0,55,0.00,,---,0.00,VWS V14.01,2013-04-04 14:35:00,
2013-04-04 07:40:00,44.8,29.2,25.90,ESE,112,0.0,0.0,54,0.00,,---,0.00,VWS V14.01,2013-04-04 14:40:00,
2013-04-04 07:45:00,45.0,29.3,25.90,ESE,112,2.2,2.2,54,0.00,,---,0.00,VWS V14.01,2013-04-04 14:45:00,
2013-04-04 07:50:00,45.1,30.0,25.90,ENE,68,2.7,3.6,55,0.00,,---,0.00,VWS V14.01,2013-04-04 14:50:00,
2013-04-04 07:55:00,45.3,29.7,25.90,ENE,68,2.2,3.1,54,0.00,,---,0.00,VWS V14.01,2013-04-04 14:55:00,
2013-04-04 08:00:00,45.5,30.7,25.90,NE,45,2.7,3.1,56,0.00,,---,0.00,VWS V14.01,2013-04-04 15:00:00,
2013-04-04 08:05:00,45.3,30.1,25.90,NE,45,4.0,4.0,55,0.00,,---,0.00,VWS V14.01,2013-04-04 15:05:00,
2013-04-04 08:10:00,45.3,30.1,25.90,NE,45,2.2,2.2,55,0.00,,---,0.00,VWS V14.01,2013-04-04 15:10:00,
2013-04-04 08:15:00,45.3,30.6,25.90,NE,45,0.0,0.0,56,0.00,,---,0.00,VWS V14.01,2013-04-04 15:15:00,
2013-04-04 08:20:00,45.3,30.1,25.90,NE,45,2.2,2.2,55,0.00,,---,0.00,VWS V14.01,2013-04-04 15:20:00,
2013-04-04 08:25:00,45.3,30.6,25.90,NE,45,3.1,3.1,56,0.00,,---,0.00,VWS V14.01,2013-04-04 15:25:00,
2013-04-04 08:30:00,45.5,31.2,25.90,East,90,3.6,3.6,57,0.00,,---,0.00,VWS V14.01,2013-04-04 15:30:00,
2013-04-04 08:35:00,45.5,31.2,25.90,East,90,3.6,3.6,57,0.00,,---,0.00,VWS V14.01,2013-04-04 15:35:00,
2013-04-04 08:40:00,45.5,31.2,25.90,ENE,68,2.2,2.7,57,0.00,,---,0.00,VWS V14.01,2013-04-04 15:40:00,
2013-04-04 08:45:00,45.7,31.8,25.87,East,90,2.7,2.7,58,0.00,,---,0.00,VWS V14.01,2013-04-04 15:45:00,
2013-04-04 08:50:00,46.0,32.1,25.87,East,90,2.7,3.1,58,0.00,,---,0.00,VWS V14.01,2013-04-04 15:50:00,
2013-04-04 08:55:00,46.2,31.8,25.87,ESE,112,2.7,2.7,57,0.00,,---,0.00,VWS V14.01,2013-04-04 15:55:00,
2013-04-04 09:01:00,46.4,32.0,25.87,SE,135,2.7,2.7,57,0.00,,---,0.00,VWS V14.01,2013-04-04 16:01:00,
2013-04-04 09:06:00,46.6,32.6,25.87,SSE,158,2.2,2.2,58,0.00,,---,0.00,VWS V14.01,2013-04-04 16:06:00,
2013-04-04 09:11:00,46.9,33.4,25.87,SE,135,2.7,2.7,59,0.00,,---,0.00,VWS V14.01,2013-04-04 16:11:00,
2013-04-04 09:16:00,47.3,33.7,25.87,ESE,112,3.1,3.1,59,0.00,,---,0.00,VWS V14.01,2013-04-04 16:16:00,
2013-04-04 09:21:00,47.7,34.0,25.87,SE,135,3.1,3.1,59,0.00,,---,0.00,VWS V14.01,2013-04-04 16:21:00,
2013-04-04 09:26:00,48.0,34.4,25.87,SE,135,3.6,3.6,59,0.00,,---,0.00,VWS V14.01,2013-04-04 16:26:00,
2013-04-04 09:31:00,48.0,34.4,25.87,SE,135,3.1,3.1,59,0.00,,---,0.00,VWS V14.01,2013-04-04 16:31:00,
2013-04-04 09:36:00,48.4,33.4,25.87,East,90,4.0,4.0,56,0.00,,---,0.00,VWS V14.01,2013-04-04 16:36:00,
2013-04-04 09:41:00,48.2,33.3,25.87,East,90,4.0,4.0,56,0.00,,---,0.00,VWS V14.01,2013-04-04 16:41:00,
2013-04-04 09:46:00,48.4,33.9,25.87,East,90,3.6,3.6,57,0.00,,---,0.00,VWS V14.01,2013-04-04 16:46:00,
2013-04-04 09:51:00,48.4,33.9,25.87,ESE,112,3.6,3.6,57,0.00,,---,0.00,VWS V14.01,2013-04-04 16:51:00,
2013-04-04 09:56:00,48.4,33.9,25.84,SE,135,0.0,0.0,57,0.00,,---,0.00,VWS V14.01,2013-04-04 16:56:00,
2013-04-04 10:01:00,48.7,34.2,25.84,SE,135,3.6,3.6,57,0.00,,---,0.00,VWS V14.01,2013-04-04 17:01:00,
2013-04-04 10:06:00,48.7,34.6,25.84,SSE,158,3.1,3.1,58,0.00,,---,0.00,VWS V14.01,2013-04-04 17:06:00,
2013-04-04 10:11:00,48.7,34.6,25.84,SE,135,0.0,2.7,58,0.00,,---,0.00,VWS V14.01,2013-04-04 17:11:00,
2013-04-04 10:16:00,48.9,34.8,25.84,ESE,112,4.0,4.0,58,0.00,,---,0.00,VWS V14.01,2013-04-04 17:16:00,
2013-04-04 10:21:00,48.7,34.2,25.84,ESE,112,3.1,4.5,57,0.00,,---,0.00,VWS V14.01,2013-04-04 17:21:00,
2013-04-04 10:26:00,48.9,33.9,25.84,SE,135,2.7,4.0,56,0.00,,---,0.00,VWS V14.01,2013-04-04 17:26:00,
2013-04-04 10:32:00,48.9,34.4,25.84,SE,135,0.0,0.0,57,0.00,,---,0.00,VWS V14.01,2013-04-04 17:32:00,
2013-04-04 10:37:00,49.1,34.5,25.84,East,90,3.6,3.6,57,0.00,,---,0.00,VWS V14.01,2013-04-04 17:37:00,
2013-04-04 10:42:00,49.1,34.5,25.84,SE,135,2.2,2.7,57,0.00,,---,0.00,VWS V14.01,2013-04-04 17:42:00,
2013-04-04 10:47:00,49.1,35.0,25.84,ESE,112,3.1,3.1,58,0.04,,---,0.04,VWS V14.01,2013-04-04 17:47:00,
2013-04-04 10:52:00,48.7,35.1,25.84,East,90,2.7,2.7,59,0.04,,---,0.04,VWS V14.01,2013-04-04 17:52:00,
2013-04-04 10:57:00,49.1,35.4,25.84,East,90,2.7,2.7,59,0.04,,---,0.04,VWS V14.01,2013-04-04 17:57:00,
2013-04-04 11:02:00,49.1,35.0,25.84,ESE,112,3.6,4.0,58,0.04,,---,0.04,VWS V14.01,2013-04-04 18:02:00,
2013-04-04 11:07:00,48.7,34.6,25.84,ENE,68,3.6,3.6,58,0.04,,---,0.04,VWS V14.01,2013-04-04 18:07:00,
2013-04-04 11:12:00,48.6,34.5,25.84,East,90,2.7,3.1,58,0.04,,---,0.04,VWS V14.01,2013-04-04 18:12:00,
2013-04-04 11:17:00,48.6,34.5,25.84,East,90,2.7,3.1,58,0.04,,---,0.04,VWS V14.01,2013-04-04 18:17:00,
2013-04-04 11:22:00,48.6,34.9,25.84,ENE,68,2.2,3.1,59,0.04,,---,0.04,VWS V14.01,2013-04-04 18:22:00,
2013-04-04 11:27:00,48.4,34.7,25.84,East,90,4.9,4.9,59,0.04,,---,0.04,VWS V14.01,2013-04-04 18:27:00,
2013-04-04 11:32:00,48.0,34.4,25.84,SE,135,2.7,3.6,59,0.04,,---,0.04,VWS V14.01,2013-04-04 18:32:00,
2013-04-04 11:37:00,48.2,34.6,25.84,NE,45,3.1,3.1,59,0.04,,---,0.04,VWS V14.01,2013-04-04 18:37:00,
2013-04-04 11:42:00,47.7,34.9,25.81,NE,45,4.9,4.9,61,0.04,,---,0.04,VWS V14.01,2013-04-04 18:42:00,
2013-04-04 11:47:00,47.5,35.1,25.81,NE,45,0.0,2.7,62,0.00,,---,0.04,VWS V14.01,2013-04-04 18:47:00,
2013-04-04 11:52:00,47.3,35.8,25.81,NNE,22,3.1,3.1,64,0.00,,---,0.04,VWS V14.01,2013-04-04 18:52:00,
2013-04-04 11:57:00,47.1,36.4,25.81,East,90,3.1,4.0,66,0.00,,---,0.04,VWS V14.01,2013-04-04 18:57:00,
2013-04-04 12:02:00,46.8,34.8,25.81,East,90,3.1,3.1,63,0.00,,---,0.04,VWS V14.01,2013-04-04 19:02:00,
2013-04-04 12:07:00,46.8,35.6,25.81,SE,135,2.2,4.0,65,0.00,,---,0.04,VWS V14.01,2013-04-04 19:07:00,
2013-04-04 12:12:00,46.8,36.0,25.81,NNE,22,3.1,3.1,66,0.04,,---,0.08,VWS V14.01,2013-04-04 19:12:00,
2013-04-04 12:17:00,46.6,36.6,25.81,East,90,3.6,4.0,68,0.04,,---,0.08,VWS V14.01,2013-04-04 19:17:00,
2013-04-04 12:22:00,46.6,36.6,25.81,NE,45,4.0,5.4,68,0.04,,---,0.08,VWS V14.01,2013-04-04 19:22:00,
2013-04-04 12:27:00,46.6,36.6,25.81,East,90,4.0,4.0,68,0.04,,---,0.08,VWS V14.01,2013-04-04 19:27:00,
2013-04-04 12:32:00,46.4,36.0,25.81,East,90,0.0,0.0,67,0.08,,---,0.12,VWS V14.01,2013-04-04 19:32:00,
2013-04-04 12:37:00,46.2,36.6,25.81,SE,135,2.7,2.7,69,0.08,,---,0.12,VWS V14.01,2013-04-04 19:37:00,
2013-04-04 12:42:00,46.2,37.0,25.81,SE,135,0.0,0.0,70,0.08,,---,0.12,VWS V14.01,2013-04-04 19:42:00,
2013-04-04 12:47:00,46.2,36.3,25.81,East,90,3.1,3.6,68,0.08,,---,0.12,VWS V14.01,2013-04-04 19:47:00,
2013-04-04 12:52:00,46.0,36.5,25.81,SE,135,0.0,0.0,69,0.08,,---,0.12,VWS V14.01,2013-04-04 19:52:00,
2013-04-04 12:57:00,45.9,36.6,25.81,SSE,158,0.0,0.0,70,0.08,,---,0.12,VWS V14.01,2013-04-04 19:57:00,
2013-04-04 13:02:00,46.0,36.5,25.81,ESE,112,0.0,2.2,69,0.08,,---,0.12,VWS V14.01,2013-04-04 20:02:00,
2013-04-04 13:07:00,46.0,36.5,25.81,SE,135,2.2,2.7,69,0.13,,---,0.17,VWS V14.01,2013-04-04 20:07:00,
2013-04-04 13:12:00,46.0,36.8,25.78,East,90,0.0,2.7,70,0.09,,---,0.17,VWS V14.01,2013-04-04 20:12:00,
2013-04-04 13:17:00,46.0,36.8,25.78,East,90,2.7,4.9,70,0.09,,---,0.17,VWS V14.01,2013-04-04 20:17:00,
2013-04-04 13:22:00,46.0,36.8,25.78,SE,135,3.6,3.6,70,0.09,,---,0.17,VWS V14.01,2013-04-04 20:22:00,
2013-04-04 13:27:00,45.9,37.0,25.81,SE,135,3.1,4.5,71,0.09,,---,0.17,VWS V14.01,2013-04-04 20:27:00,
2013-04-04 13:32:00,45.7,36.8,25.81,SE,135,3.1,3.6,71,0.05,,---,0.17,VWS V14.01,2013-04-04 20:32:00,
2013-04-04 13:37:00,45.7,36.8,25.81,South,180,2.7,3.6,71,0.05,,---,0.17,VWS V14.01,2013-04-04 20:37:00,
2013-04-04 13:42:00,45.5,37.7,25.78,SE,135,3.1,4.9,74,0.05,,---,0.17,VWS V14.01,2013-04-04 20:42:00,
2013-04-04 13:47:00,45.5,37.4,25.78,SSE,158,3.6,3.6,73,0.05,,---,0.17,VWS V14.01,2013-04-04 20:47:00,
2013-04-04 13:52:00,45.5,37.4,25.78,ESE,112,0.0,2.2,73,0.09,,---,0.21,VWS V14.01,2013-04-04 20:52:00,
2013-04-04 13:57:00,45.5,37.7,25.78,ESE,112,2.2,2.7,74,0.09,,---,0.21,VWS V14.01,2013-04-04 20:57:00,
2013-04-04 14:02:00,45.7,37.5,25.78,SE,135,0.0,0.0,73,0.09,,---,0.21,VWS V14.01,2013-04-04 21:02:00,
2013-04-04 14:07:00,45.9,37.7,25.78,SE,135,4.0,4.0,73,0.04,,---,0.21,VWS V14.01,2013-04-04 21:07:00,
2013-04-04 14:12:00,45.9,38.0,25.78,SE,135,2.7,3.6,74,0.04,,---,0.21,VWS V14.01,2013-04-04 21:12:00,
2013-04-04 14:17:00,45.9,38.0,25.78,SSE,158,2.2,4.9,74,0.04,,---,0.21,VWS V14.01,2013-04-04 21:17:00,
2013-04-04 14:22:00,45.7,38.2,25.78,SE,135,2.2,5.8,75,0.04,,---,0.21,VWS V14.01,2013-04-04 21:22:00,
2013-04-04 14:27:00,45.5,38.4,25.78,SE,135,0.0,5.8,76,0.04,,---,0.21,VWS V14.01,2013-04-04 21:27:00,
2013-04-04 14:32:00,45.3,38.2,25.78,SE,135,3.6,4.5,76,0.04,,---,0.21,VWS V14.01,2013-04-04 21:32:00,
2013-04-04 14:37:00,45.0,38.2,25.78,SE,135,6.3,7.2,77,0.04,,---,0.21,VWS V14.01,2013-04-04 21:37:00,
2013-04-04 14:42:00,44.8,38.7,25.78,SE,135,3.1,4.9,79,0.04,,---,0.21,VWS V14.01,2013-04-04 21:42:00,
2013-04-04 14:47:00,44.8,38.3,25.78,SE,135,5.8,8.1,78,0.04,,---,0.21,VWS V14.01,2013-04-04 21:47:00,
2013-04-04 14:52:00,44.6,38.2,25.78,SE,135,5.8,6.3,78,0.04,,---,0.21,VWS V14.01,2013-04-04 21:52:00,
2013-04-04 14:57:00,44.2,38.5,25.78,SE,135,5.8,5.8,80,0.04,,---,0.25,VWS V14.01,2013-04-04 21:57:00,
2013-04-04 15:02:00,44.4,38.3,25.78,East,90,3.6,3.6,79,0.04,,---,0.25,VWS V14.01,2013-04-04 22:02:00,
2013-04-04 15:07:00,44.4,38.3,25.78,SE,135,6.7,8.3,79,0.04,,---,0.25,VWS V14.01,2013-04-04 22:07:00,
2013-04-04 15:12:00,44.4,38.3,25.75,SSE,158,2.7,5.4,79,0.04,,---,0.25,VWS V14.01,2013-04-04 22:12:00,
2013-04-04 15:17:00,44.4,38.0,25.75,SSE,158,7.6,7.6,78,0.04,,---,0.25,VWS V14.01,2013-04-04 22:17:00,
2013-04-04 15:22:00,44.4,39.0,25.75,SE,135,4.0,6.3,81,0.04,,---,0.25,VWS V14.01,2013-04-04 22:22:00,
2013-04-04 15:27:00,44.6,39.1,25.75,SE,135,3.6,3.6,81,0.04,,---,0.25,VWS V14.01,2013-04-04 22:27:00,
2013-04-04 15:32:00,44.8,39.0,25.75,ESE,112,4.0,6.3,80,0.04,,---,0.25,VWS V14.01,2013-04-04 22:32:00,
2013-04-04 15:37:00,45.0,39.2,25.75,SE,135,0.0,4.9,80,0.04,,---,0.25,VWS V14.01,2013-04-04 22:37:00,
2013-04-04 15:42:00,45.3,39.5,25.75,SE,135,2.2,6.3,80,0.04,,---,0.25,VWS V14.01,2013-04-04 22:42:00,
2013-04-04 15:47:00,45.5,39.4,25.75,South,180,2.7,5.8,79,0.04,,---,0.25,VWS V14.01,2013-04-04 22:47:00,
2013-04-04 15:52:00,45.5,39.4,25.75,SSE,158,3.1,5.4,79,0.04,,---,0.25,VWS V14.01,2013-04-04 22:52:00,
2013-04-04 15:57:00,45.1,39.7,25.75,SE,135,6.3,6.3,81,0.00,,---,0.25,VWS V14.01,2013-04-04 22:57:00,
2013-04-04 16:02:00,45.0,40.7,25.75,SE,135,2.7,4.0,85,0.00,,---,0.25,VWS V14.01,2013-04-04 23:02:00,
2013-04-04 16:07:00,45.0,40.7,25.75,SSE,158,4.9,8.3,85,0.00,,---,0.25,VWS V14.01,2013-04-04 23:07:00,
2013-04-04 16:12:00,45.1,40.6,25.75,South,180,4.5,4.5,84,0.00,,---,0.25,VWS V14.01,2013-04-04 23:12:00,
2013-04-04 16:17:00,45.1,40.6,25.75,SE,135,6.3,7.2,84,0.00,,---,0.25,VWS V14.01,2013-04-04 23:17:00,
2013-04-04 16:22:00,44.8,40.5,25.75,South,180,6.7,6.7,85,0.00,,---,0.25,VWS V14.01,2013-04-04 23:22:00,
2013-04-04 16:27:00,44.8,41.2,25.75,South,180,7.2,7.2,87,0.00,,---,0.25,VWS V14.01,2013-04-04 23:27:00,
2013-04-04 16:32:00,44.8,41.2,25.75,South,180,3.6,5.8,87,0.00,,---,0.25,VWS V14.01,2013-04-04 23:32:00,
2013-04-04 16:38:00,44.6,41.6,25.75,South,180,5.8,7.2,89,0.00,,---,0.25,VWS V14.01,2013-04-04 23:38:00,
2013-04-04 16:43:00,44.4,42.0,25.75,SE,135,5.4,5.4,91,0.00,,---,0.25,VWS V14.01,2013-04-04 23:43:00,
2013-04-04 16:48:00,44.4,42.0,25.75,SSW,202,6.7,6.7,91,0.00,,---,0.25,VWS V14.01,2013-04-04 23:48:00,
2013-04-04 16:53:00,44.6,42.4,25.75,South,180,3.6,3.6,92,0.00,,---,0.25,VWS V14.01,2013-04-04 23:53:00,
2013-04-04 16:57:00,44.8,42.3,25.75,South,180,3.6,7.2,91,0.00,,---,0.25,VWS V14.01,2013-04-04 23:57:00,
2013-04-04 17:02:00,44.8,42.3,25.75,South,180,6.3,6.3,91,0.00,,---,0.25,VWS V14.01,2013-04-05 00:02:00,
2013-04-04 17:07:00,45.0,42.2,25.75,SE,135,6.3,6.3,90,0.04,,---,0.29,VWS V14.01,2013-04-05 00:07:00,
2013-04-04 17:13:00,44.8,42.0,25.72,South,180,2.7,2.7,90,0.04,,---,0.29,VWS V14.01,2013-04-05 00:13:00,
2013-04-04 17:18:00,44.6,42.1,25.72,South,180,5.4,7.6,91,0.04,,---,0.29,VWS V14.01,2013-04-05 00:18:00,
2013-04-04 17:23:00,44.4,42.0,25.72,SSW,202,4.0,4.9,91,0.04,,---,0.29,VWS V14.01,2013-04-05 00:23:00,
2013-04-04 17:28:00,44.2,41.5,25.72,South,180,2.2,2.2,90,0.04,,---,0.29,VWS V14.01,2013-04-05 00:28:00,
2013-04-04 17:33:00,44.4,41.7,25.72,South,180,4.0,4.0,90,0.04,,---,0.29,VWS V14.01,2013-04-05 00:33:00,
2013-04-04 17:38:00,44.2,41.5,25.72,South,180,3.6,3.6,90,0.04,,---,0.29,VWS V14.01,2013-04-05 00:38:00,
2013-04-04 17:43:00,44.1,41.9,25.72,SSE,158,3.1,3.1,92,0.04,,---,0.29,VWS V14.01,2013-04-05 00:43:00,
2013-04-04 17:48:00,44.2,41.8,25.72,South,180,3.1,3.1,91,0.04,,---,0.29,VWS V14.01,2013-04-05 00:48:00,
2013-04-04 17:53:00,44.2,42.1,25.72,South,180,5.4,6.3,92,0.04,,---,0.29,VWS V14.01,2013-04-05 00:53:00,
2013-04-04 17:58:00,44.2,42.3,25.72,SE,135,2.7,4.9,93,0.04,,---,0.29,VWS V14.01,2013-04-05 00:58:00,
2013-04-04 18:03:00,44.2,42.3,25.72,SSE,158,4.9,4.9,93,0.04,,---,0.29,VWS V14.01,2013-04-05 01:03:00,
2013-04-04 18:08:00,44.1,42.2,25.72,SE,135,4.9,4.9,93,0.00,,---,0.29,VWS V14.01,2013-04-05 01:08:00,
2013-04-04 18:13:00,43.9,42.3,25.72,South,180,7.6,7.6,94,0.00,,---,0.29,VWS V14.01,2013-04-05 01:13:00,
2013-04-04 18:18:00,43.7,42.4,25.72,SSW,202,7.6,7.6,95,0.00,,---,0.29,VWS V14.01,2013-04-05 01:18:00,
2013-04-04 18:23:00,43.7,42.4,25.72,South,180,4.0,4.0,95,0.00,,---,0.29,VWS V14.01,2013-04-05 01:23:00,
2013-04-04 18:28:00,43.7,42.4,25.72,South,180,7.2,7.2,95,0.00,,---,0.29,VWS V14.01,2013-04-05 01:28:00,
2013-04-04 18:33:00,43.7,41.8,25.72,South,180,5.8,5.8,93,0.00,,---,0.29,VWS V14.01,2013-04-05 01:33:00,
2013-04-04 18:38:00,43.7,42.4,25.72,SW,225,5.4,5.4,95,0.00,,---,0.29,VWS V14.01,2013-04-05 01:38:00,
2013-04-04 18:43:00,43.7,41.8,25.72,South,180,3.1,3.6,93,0.00,,---,0.29,VWS V14.01,2013-04-05 01:43:00,
2013-04-04 18:48:00,43.7,41.8,25.72,SW,225,5.4,5.4,93,0.00,,---,0.29,VWS V14.01,2013-04-05 01:48:00,
2013-04-04 18:53:00,43.7,41.8,25.72,South,180,3.6,3.6,93,0.00,,---,0.29,VWS V14.01,2013-04-05 01:53:00,
2013-04-04 18:58:00,43.5,41.3,25.72,South,180,2.7,4.9,92,0.00,,---,0.29,VWS V14.01,2013-04-05 01:58:00,
2013-04-04 19:03:00,43.5,41.9,25.72,SW,225,3.6,5.4,94,0.00,,---,0.29,VWS V14.01,2013-04-05 02:03:00,
2013-04-04 19:08:00,43.3,42.0,25.72,SSW,202,3.1,5.4,95,0.00,,---,0.29,VWS V14.01,2013-04-05 02:08:00,
2013-04-04 19:13:00,43.3,42.0,25.69,South,180,6.3,6.3,95,0.00,,---,0.29,VWS V14.01,2013-04-05 02:13:00,
2013-04-04 19:18:00,43.3,42.0,25.69,SSW,202,4.0,4.9,95,0.00,,---,0.29,VWS V14.01,2013-04-05 02:18:00,
2013-04-04 19:23:00,43.3,42.3,25.69,South,180,5.8,5.8,96,0.00,,---,0.29,VWS V14.01,2013-04-05 02:23:00,
2013-04-04 19:28:00,43.2,41.8,25.72,South,180,4.9,4.9,95,0.00,,---,0.29,VWS V14.01,2013-04-05 02:28:00,
2013-04-04 19:33:00,43.3,42.3,25.72,South,180,6.7,6.7,96,0.00,,---,0.29,VWS V14.01,2013-04-05 02:33:00,
2013-04-04 19:38:00,43.2,42.1,25.72,South,180,3.6,6.3,96,0.00,,---,0.29,VWS V14.01,2013-04-05 02:38:00,
2013-04-04 19:43:00,43.2,41.8,25.72,South,180,5.8,5.8,95,0.00,,---,0.29,VWS V14.01,2013-04-05 02:43:00,
2013-04-04 19:48:00,42.8,41.5,25.72,SW,225,2.7,2.7,95,0.00,,---,0.29,VWS V14.01,2013-04-05 02:48:00,
2013-04-04 19:53:00,42.8,41.5,25.72,SW,225,5.8,5.8,95,0.00,,---,0.29,VWS V14.01,2013-04-05 02:53:00,
2013-04-04 19:58:00,42.8,41.2,25.72,SW,225,4.0,4.0,94,0.00,,---,0.29,VWS V14.01,2013-04-05 02:58:00,
2013-04-04 20:03:00,42.8,40.9,25.72,SW,225,0.0,0.0,93,0.00,,---,0.29,VWS V14.01,2013-04-05 03:03:00,
2013-04-04 20:08:00,42.8,40.9,25.72,SW,225,0.0,0.0,93,0.00,,---,0.29,VWS V14.01,2013-04-05 03:08:00,
2013-04-04 20:13:00,42.6,41.0,25.72,SSW,202,0.0,0.0,94,0.00,,---,0.29,VWS V14.01,2013-04-05 03:13:00,
2013-04-04 20:18:00,42.4,40.6,25.72,SW,225,0.0,0.0,93,0.00,,---,0.29,VWS V14.01,2013-04-05 03:18:00,
2013-04-04 20:23:00,42.4,40.6,25.72,SW,225,0.0,0.0,93,0.00,,---,0.29,VWS V14.01,2013-04-05 03:23:00,
2013-04-04 20:28:00,42.6,40.5,25.72,SW,225,3.1,3.6,92,0.00,,---,0.29,VWS V14.01,2013-04-05 03:28:00,
2013-04-04 20:33:00,42.6,41.0,25.72,South,180,4.0,4.5,94,0.00,,---,0.29,VWS V14.01,2013-04-05 03:33:00,
2013-04-04 20:38:00,42.4,40.8,25.72,SW,225,0.0,0.0,94,0.00,,---,0.29,VWS V14.01,2013-04-05 03:38:00,
2013-04-04 20:43:00,42.6,40.7,25.72,SW,225,3.1,3.1,93,0.00,,---,0.29,VWS V14.01,2013-04-05 03:43:00,
2013-04-04 20:48:00,42.6,40.5,25.72,SSW,202,3.6,4.0,92,0.00,,---,0.29,VWS V14.01,2013-04-05 03:48:00,
2013-04-04 20:53:00,42.4,40.6,25.72,SW,225,3.1,3.1,93,0.00,,---,0.29,VWS V14.01,2013-04-05 03:53:00,
2013-04-04 20:58:00,42.4,40.3,25.72,SW,225,4.0,4.0,92,0.00,,---,0.29,VWS V14.01,2013-04-05 03:58:00,
2013-04-04 21:00:00,42.4,40.3,25.72,SW,225,3.6,3.6,92,0.00,,---,0.29,VWS V14.01,2013-04-05 04:00:00,
2013-04-04 21:05:00,42.4,40.0,25.72,SW,225,3.6,3.6,91,0.00,,---,0.29,VWS V14.01,2013-04-05 04:05:00,
2013-04-04 21:10:00,42.1,39.4,25.72,SW,225,0.0,0.0,90,0.00,,---,0.29,VWS V14.01,2013-04-05 04:10:00,
2013-04-04 21:15:00,41.9,39.2,25.72,SW,225,3.6,4.0,90,0.00,,---,0.29,VWS V14.01,2013-04-05 04:15:00,
2013-04-04 21:20:00,41.5,38.8,25.72,SW,225,4.0,4.0,90,0.00,,---,0.29,VWS V14.01,2013-04-05 04:20:00,
2013-04-04 21:25:00,41.5,38.8,25.72,WSW,248,3.1,3.1,90,0.00,,---,0.29,VWS V14.01,2013-04-05 04:25:00,
2013-04-04 21:30:00,41.2,38.8,25.72,WSW,248,3.1,3.1,91,0.00,,---,0.29,VWS V14.01,2013-04-05 04:30:00,
2013-04-04 21:35:00,41.2,38.5,25.72,WSW,248,3.1,3.1,90,0.00,,---,0.29,VWS V14.01,2013-04-05 04:35:00,
2013-04-04 21:40:00,41.2,38.8,25.72,SW,225,3.1,3.1,91,0.00,,---,0.29,VWS V14.01,2013-04-05 04:40:00,
2013-04-04 21:45:00,41.2,38.8,25.72,SW,225,3.6,3.6,91,0.00,,---,0.29,VWS V14.01,2013-04-05 04:45:00,
2013-04-04 21:50:00,41.4,38.9,25.72,SW,225,2.7,2.7,91,0.00,,---,0.29,VWS V14.01,2013-04-05 04:50:00,
2013-04-04 21:55:00,41.0,38.6,25.72,West,270,2.7,2.7,91,0.00,,---,0.29,VWS V14.01,2013-04-05 04:55:00,
2013-04-04 22:00:00,40.8,38.4,25.72,SW,225,0.0,2.2,91,0.00,,---,0.29,VWS V14.01,2013-04-05 05:00:00,
2013-04-04 22:05:00,40.8,38.7,25.72,SW,225,0.0,0.0,92,0.00,,---,0.29,VWS V14.01,2013-04-05 05:05:00,
2013-04-04 22:10:00,41.0,39.1,25.72,SSW,202,0.0,0.0,93,0.00,,---,0.29,VWS V14.01,2013-04-05 05:10:00,
2013-04-04 22:15:00,40.6,38.8,25.72,South,180,4.0,4.0,93,0.00,,---,0.29,VWS V14.01,2013-04-05 05:15:00,
2013-04-04 22:20:00,40.8,39.2,25.72,South,180,2.7,3.1,94,0.00,,---,0.29,VWS V14.01,2013-04-05 05:20:00,
2013-04-04 22:25:00,41.0,39.1,25.72,South,180,0.0,0.0,93,0.00,,---,0.29,VWS V14.01,2013-04-05 05:25:00,
2013-04-04 22:30:00,41.0,39.1,25.72,SSW,202,0.0,0.0,93,0.00,,---,0.29,VWS V14.01,2013-04-05 05:30:00,
2013-04-04 22:35:00,41.2,39.3,25.72,SSW,202,0.0,0.0,93,0.00,,---,0.29,VWS V14.01,2013-04-05 05:35:00,
2013-04-04 22:40:00,41.2,39.0,25.72,West,270,2.7,2.7,92,0.00,,---,0.29,VWS V14.01,2013-04-05 05:40:00,
2013-04-04 22:45:00,41.4,39.5,25.75,WSW,248,0.0,0.0,93,0.00,,---,0.29,VWS V14.01,2013-04-05 05:45:00,
2013-04-04 22:50:00,41.5,39.7,25.75,WSW,248,0.0,0.0,93,0.00,,---,0.29,VWS V14.01,2013-04-05 05:50:00,
2013-04-04 22:55:00,41.5,39.7,25.75,WSW,248,0.0,0.0,93,0.00,,---,0.29,VWS V14.01,2013-04-05 05:55:00,
2013-04-04 23:00:00,41.7,40.1,25.75,SW,225,0.0,0.0,94,0.00,,---,0.29,VWS V14.01,2013-04-05 06:00:00,
2013-04-04 23:05:00,41.9,40.3,25.75,SW,225,2.7,2.7,94,0.00,,---,0.29,VWS V14.01,2013-04-05 06:05:00,
2013-04-04 23:10:00,41.9,40.0,25.75,SW,225,2.2,3.6,93,0.00,,---,0.29,VWS V14.01,2013-04-05 06:10:00,
2013-04-04 23:15:00,41.7,39.8,25.72,South,180,3.1,3.1,93,0.00,,---,0.29,VWS V14.01,2013-04-05 06:15:00,
2013-04-04 23:20:00,41.7,39.8,25.72,SW,225,3.1,3.1,93,0.00,,---,0.29,VWS V14.01,2013-04-05 06:20:00,
2013-04-04 23:25:00,41.2,39.6,25.72,SW,225,2.7,3.6,94,0.00,,---,0.29,VWS V14.01,2013-04-05 06:25:00,
2013-04-04 23:30:00,41.2,39.9,25.75,SW,225,2.7,3.1,95,0.00,,---,0.29,VWS V14.01,2013-04-05 06:30:00,
2013-04-04 23:35:00,41.0,39.7,25.75,SW,225,0.0,0.0,95,0.00,,---,0.29,VWS V14.01,2013-04-05 06:35:00,
2013-04-04 23:40:00,40.3,39.0,25.75,NW,315,0.0,0.0,95,0.00,,---,0.29,VWS V14.01,2013-04-05 06:40:00,
2013-04-04 23:45:00,39.6,38.2,25.72,NW,315,0.0,0.0,95,0.00,,---,0.29,VWS V14.01,2013-04-05 06:45:00,
2013-04-04 23:50:00,39.2,37.9,25.72,WSW,248,0.0,0.0,95,0.00,,---,0.29,VWS V14.01,2013-04-05 06:50:00,
2013-04-04 23:55:00,38.7,37.3,25.72,WSW,248,0.0,0.0,95,0.00,,---,0.29,VWS V14.01,2013-04-05 06:55:00,